Find Kuiper-00079

NORAD ID: 64826 Int'l Des: 2025-151 Owner: KUIP Country: US Constellation: amazon-leo operational
LEOCIRCULAR

現在のビュー

3D地球を読み込み中...

About Kuiper-00079

Kuiper-00079 (NORAD 64826) is a amazon-leo constellation satellite launched Jul 16, 2025 by KUIP of US. It operates in LEO, CIRCULAR orbit with a mass of 490.00 kg.

Kuiper-00079について

説明を読み込み中...

次回通過

Passes for default location (London). Set your location on the main map for personalized predictions.

高度履歴

Loading altitude history...

軌道要素

1 64826U 25151L 26195.17592588 .00001866 00000-0 27374-3 0 9995
2 64826 51.8999 101.2317 0000753 98.1676 261.9372 14.79927574 55236
Epoch: Jul 14, 2026 • Age: 5 hours

現在のステータス

高度 642.5 km
遠地点 / 近地点 N/A
速度 7.54 km/s
衛星直下点 -38.77°S, 3.36°W
打ち上げ日 Jul 16, 2025
運用期間 0.9 years
タイプ internet

技術仕様

分類 Payload
質量 490.00 kg
乾燥質量 490.00 kg
総質量 490.00 kg
長さ 1.80 m
直径 0.70 m
スパン 5.00 m
形状 Box + 2 pan
製造者 KUIP
バスタイプ Kuiper
フェーズステータス In Orbit
所有者/国 KUIP/US

Most Searched